This is the latest recevied weather packets stored in our database for station/object NQ9F. If no packets are shown the sender has not sent any weather packets the latest 10 day(s).
| Time | Temp. | Humidity | Pressure | Rain* | Wind** | Luminosity | Snow |
|---|---|---|---|---|---|---|---|
| 1777752610 | 22.78° C | 41% | 1021 hPa | 0 mm | - | 978 W/m² | - |
| 1777752306 | 22.78° C | 43% | 1020.9 hPa | 0 mm | - | 983 W/m² | - |
| 1777752004 | 22.22° C | 43% | 1021 hPa | 0 mm | - | 1025 W/m² | - |
| 1777751701 | 22.78° C | 47% | 1020.9 hPa | 0 mm | - | 870 W/m² | - |
| 1777751397 | 22.78° C | 44% | 1021 hPa | 0 mm | - | 1077 W/m² | - |
| 1777751094 | 22.78° C | 45% | 1021.1 hPa | 0 mm | - | 1057 W/m² | - |
| 1777750790 | 21.67° C | 45% | 1020.9 hPa | 0 mm | - | 180 W/m² | - |
| 1777750488 | 21.11° C | 46% | 1020.9 hPa | 0 mm | - | 228 W/m² | - |
| 1777750183 | 22.78° C | 47% | 1021.1 hPa | 0 mm | - | 1063 W/m² | - |
| 1777749880 | 21.67° C | 43% | 1021.2 hPa | 0 mm | - | 1008 W/m² | - |
| 1777749577 | 22.78° C | 47% | 1021.1 hPa | 0 mm | - | 1014 W/m² | - |
| 1777749275 | 22.22° C | 42% | 1021.3 hPa | 0 mm | - | 1018 W/m² | - |
| 1777748972 | 21.11° C | 45% | 1021.2 hPa | 0 mm | - | 1001 W/m² | - |
| 1777748669 | 22.22° C | 41% | 1021.4 hPa | 0 mm | - | 165 W/m² | - |
| 1777748366 | 22.22° C | 43% | 1021.3 hPa | 0 mm | - | 1022 W/m² | - |
| 1777748061 | 22.22° C | 42% | 1021.7 hPa | 0 mm | - | 1011 W/m² | - |
| 1777747759 | 22.22° C | 46% | 1021.3 hPa | 0 mm | - | 411 W/m² | - |
| 1777747454 | 21.67° C | 41% | 1021.4 hPa | 0 mm | - | 112 W/m² | - |
| 1777747151 | 21.67° C | 43% | 1021.7 hPa | 0 mm | - | 609 W/m² | - |
| 1777746847 | 21.11° C | 44% | 1021.8 hPa | 0 mm | - | 266 W/m² | - |
| 1777746542 | 21.11° C | 45% | 1021.7 hPa | 0 mm | - | 1006 W/m² | - |
| 1777746238 | 21.11° C | 45% | 1021.8 hPa | 0 mm | - | 156 W/m² | - |
| 1777745934 | 22.78° C | 43% | 1021.7 hPa | 0 mm | - | 129 W/m² | - |
| 1777745633 | 22.22° C | 43% | 1021.9 hPa | 0 mm | - | 190 W/m² | - |
| 1777745332 | 21.11° C | 41% | 1021.6 hPa | 0 mm | - | 634 W/m² | - |
* Rain latest hour (hover to see other rain measurements)
** Current wind speed in m/s (hover to see current wind gust speed)